This is the latest recevied weather packets stored in our database for station/object K7CTM. If no packets are shown the sender has not sent any weather packets the latest 10 day(s).
| Time | Temp. | Humidity | Pressure | Rain* | Wind** | Luminosity | Snow |
|---|---|---|---|---|---|---|---|
| 1778095618 | 14.44° C | 28% | 1023.6 hPa | 0 mm | - | 865 W/m² | - |
| 1778095314 | 14.44° C | 26% | 1023.6 hPa | 0 mm | - | 858 W/m² | - |
| 1778095011 | 13.89° C | 29% | 1023.7 hPa | 0 mm | - | 860 W/m² | - |
| 1778094707 | 13.89° C | 28% | 1023.8 hPa | 0 mm | - | 864 W/m² | - |
| 1778094405 | 13.89° C | 29% | 1024 hPa | 0 mm | - | 858 W/m² | - |
| 1778094101 | 13.89° C | 28% | 1024.1 hPa | 0 mm | - | 862 W/m² | - |
| 1778093798 | 15° C | 29% | 1024.4 hPa | 0 mm | - | 862 W/m² | - |
| 1778093494 | 13.89° C | 27% | 1024.3 hPa | 0 mm | - | 868 W/m² | - |
| 1778093192 | 12.78° C | 31% | 1024.3 hPa | 0 mm | - | 853 W/m² | - |
| 1778092889 | 12.78° C | 30% | 1024.5 hPa | 0 mm | - | 866 W/m² | - |
| 1778092586 | 13.33° C | 28% | 1024.4 hPa | 0 mm | - | 857 W/m² | - |
| 1778092282 | 13.33° C | 25% | 1024.4 hPa | 0 mm | - | 851 W/m² | - |
| 1778091980 | 12.78° C | 29% | 1024.6 hPa | 0 mm | - | 847 W/m² | - |
| 1778091676 | 12.78° C | 26% | 1024.7 hPa | 0 mm | - | 844 W/m² | - |
| 1778091374 | 12.78° C | 28% | 1024.8 hPa | 0 mm | - | 843 W/m² | - |
| 1778091071 | 12.22° C | 27% | 1024.9 hPa | 0 mm | - | 833 W/m² | - |
| 1778090768 | 11.67° C | 29% | 1025.2 hPa | 0 mm | - | 830 W/m² | - |
| 1778090464 | 12.22° C | 31% | 1025.4 hPa | 0 mm | - | 826 W/m² | - |
| 1778090161 | 11.67° C | 30% | 1025.3 hPa | 0 mm | - | 824 W/m² | - |
| 1778089857 | 10.56° C | 31% | 1025.6 hPa | 0 mm | - | 820 W/m² | - |
| 1778089556 | 11.11° C | 31% | 1025.6 hPa | 0 mm | - | 777 W/m² | - |
| 1778089251 | 10.56° C | 35% | 1025.7 hPa | 0 mm | - | 582 W/m² | - |
| 1778088949 | 10.56° C | 33% | 1025.8 hPa | 0 mm | - | 483 W/m² | - |
| 1778088646 | 11.11° C | 35% | 1026 hPa | 0 mm | - | 893 W/m² | - |
| 1778088343 | 10.56° C | 36% | 1026.1 hPa | 0 mm | - | 797 W/m² | - |
* Rain latest hour (hover to see other rain measurements)
** Current wind speed in m/s (hover to see current wind gust speed)